User: anonymous   Login
Location: Unspecified
(0.0000°N, 0.0000°E)
Time: 21:18:07
(UTC+00:00)
Language:

Injun 5 (Explorer 40) - Orbit

View from above orbital plane
View from above orbital plane
View from above satellite
View from above satellite

Ground track
Ground track

The orbit data is extracted from the following two-line orbital elements,

1  3338U 68066B   17141.91463880 -.00000023 +00000-0 -25215-4 0  9992
2  3338 080.6627 098.4490 1131579 240.6536 107.6913 12.22818632173301
Epoch (UTC): 21 May 2017 21:57:04
Eccentricity: 0.1131579
inclination: 80.6627°
perigee height: 680 km
apogee height: 2481 km
right ascension of ascending node: 98.4490°
argument of perigee: 240.6536°
revolutions per day: 12.22818632
mean anomaly at epoch: 107.6913°
orbit number at epoch: 17330

The dashed part of the orbit path shows where the satellite is in the earth's shadow,  

DLR